Location: Vlissingen
(51.4500°N, 3.5830°E)
Time: 13:24:44
(UTC+01:00)

N. Korean satellite - Pass Details

Date: 05 December 2021
Orbit: 447 x 491 km, 97.3° (Epoch: 21 January)

Event Time Altitude Azimuth Distance (km) Brightness Sun altitude
Rises 17:31:58 0° 184° (S) 2,524 10.7 -8.0°
Reaches altitude 10° 17:34:08 10° 193° (SSW) 1,642 9.8 -8.3°
Maximum altitude 17:37:26 37° 262° (W) 752 8.3 -8.7°
Drops below altitude 10° 17:40:42 10° 332° (NNW) 1,629 9.3 -9.2°
Sets 17:42:51 0° 341° (NNW) 2,502 10.1 -9.5°
